Powrót do katalogu

COSMOS 1818 COOLANT

LostLEO
NORAD 36954·DEBRIS·🇷🇺 Russia

Wystrzelony Feb 1, 1987 z Baikonur Cosmodrome

Loading…

Następne Przeloty (najbliższe 24 godziny)

TLE

NieaktualneSource: Space-Track

Epoka: May 14, 2014, 02:17 UTC

1 36954U 87011AJ  14134.09549947  .00000574  00000-0  24926-3 0  9996
2 36954  65.0159  18.9367 0017759 262.0349 171.1117 14.32188639218650

Śledź COSMOS 1818 COOLANT w czasie rzeczywistym z AllMySat

Download on the App Store